Kimball, NE

6:59 PM CST on January 21, 2017 (GMT -0600)
Kimball

Weather History for KIBM - June, 2013

Change the Weather History Date:

Wednesday, June 12, 2013

  Actual Average (KSNY) Record (KSNY)
Temperature  
Mean Temperature 71 °F -  
Max Temperature 86 °F 76 °F 99 °F (1952)
Min Temperature 56 °F 48 °F 32 °F (2008)
Cooling Degree Days 6    
Growing Degree Days 21 (Base 50)    
Moisture  
Dew Point 43 °F    
Average Humidity 41    
Maximum Humidity 85    
Minimum Humidity 12    
Precipitation  
Precipitation 0.00 in - - ()
Sea Level Pressure  
Sea Level Pressure 30.10 in    
Wind  
Wind Speed 10 mph (North)    
Max Wind Speed 24 mph    
Max Gust Speed 32 mph    
Visibility 10 miles    
Events      
Averages and records for this station are not official NWS values.
T = Trace of Precipitation, MM = Missing Value Source: NWS Daily Summary

Daily Weather History Graph

Daily Weather History Graph

Search for Another Location

Airport or City:

Trip Planner

Search our weather history database for the weather conditions in past years. The results will help you decide how hot, cold, wet, or windy it might be!

Date:

Astronomy

Jun. 12, 2013 Rise Set
Actual Time 6:21 AM CDT 9:28 PM CDT
Civil Twilight 5:47 AM CDT 10:01 PM CDT
Nautical Twilight 5:04 AM CDT 10:44 PM CDT
Astronomical Twilight 4:13 AM CDT 11:35 PM CDT
Moon 10:04 AM CDT (6/12) No Moon Set
Length of Visible Light 16h 13m
Length of Day
15h 06m
Waxing Crescent, 14% of the Moon is Illuminated
Jun 12
Waxing Crescent
Jun 16
First Quarter
Jun 23
Full
Jun 29
Last Quarter
Jul 8
New

Hourly Weather History & Observations

Time (CDT) Temp. Dew Point Humidity Pressure Visibility Wind Dir Wind Speed Gust Speed Precip Events Conditions
12:15 AM 80.1 °F 22.6 °F 12% 29.96 in 10.0 mi NNW 16.1 mph 32.2 mph N/A   Clear
12:35 AM 77.0 °F 23.5 °F 14% 29.97 in 10.0 mi NW 11.5 mph - N/A   Clear
12:55 AM 75.7 °F 23.2 °F 14% 29.97 in 10.0 mi WNW 17.3 mph 21.9 mph N/A   Clear
1:15 AM 73.4 °F 22.6 °F 15% 29.98 in 10.0 mi NW 10.4 mph - N/A   Clear
1:35 AM 69.6 °F 23.9 °F 18% 29.99 in 10.0 mi WNW 11.5 mph - N/A   Clear
1:55 AM 65.1 °F 25.5 °F 22% 29.99 in 10.0 mi West 9.2 mph - N/A   Clear
2:15 AM 68.0 °F 23.2 °F 18% 29.99 in 10.0 mi West 13.8 mph - N/A   Clear
2:35 AM 66.6 °F 23.7 °F 20% 30.00 in 10.0 mi WNW 10.4 mph - N/A   Clear
2:55 AM 63.7 °F 24.6 °F 23% 30.01 in 10.0 mi WNW 9.2 mph - N/A   Clear
3:15 AM 62.4 °F 25.0 °F 24% 30.01 in 10.0 mi WNW 8.1 mph - N/A   Clear
3:35 AM 60.8 °F 25.5 °F 26% 30.03 in 10.0 mi WNW 8.1 mph - N/A   Clear
3:55 AM 58.3 °F 26.4 °F 30% 30.02 in 10.0 mi WNW 9.2 mph - N/A   Clear
4:15 AM 59.4 °F 26.4 °F 28% 30.04 in 10.0 mi WNW 11.5 mph - N/A   Clear
4:35 AM 60.1 °F 25.7 °F 27% 30.04 in 10.0 mi West 10.4 mph - N/A   Clear
4:55 AM 59.4 °F 26.2 °F 28% 30.05 in 10.0 mi West 11.5 mph - N/A   Clear
5:15 AM 59.2 °F 26.6 °F 29% 30.06 in 10.0 mi NW 11.5 mph - N/A   Clear
5:35 AM 60.3 °F 31.8 °F 34% 30.08 in 10.0 mi NNW 15.0 mph - N/A   Clear
5:55 AM 57.9 °F 39.6 °F 50% 30.08 in 10.0 mi North 11.5 mph - N/A   Clear
6:15 AM 58.3 °F 48.6 °F 70% 30.09 in 10.0 mi North 10.4 mph - N/A   Scattered Clouds
6:35 AM 58.1 °F 50.5 °F 76% 30.09 in 10.0 mi NW 4.6 mph - N/A   Scattered Clouds
6:55 AM 56.7 °F 52.2 °F 85% 30.10 in 10.0 mi WNW 4.6 mph - N/A   Clear
7:15 AM 58.1 °F 53.4 °F 84% 30.10 in 10.0 mi WNW 3.5 mph - N/A   Clear
7:35 AM 60.1 °F 54.1 °F 81% 30.11 in 10.0 mi Calm Calm - N/A   Clear
7:55 AM 61.7 °F 55.2 °F 79% 30.13 in 10.0 mi NW 5.8 mph - N/A   Clear
8:15 AM 63.3 °F 56.7 °F 79% 30.14 in 10.0 mi NW 5.8 mph - N/A   Clear
8:35 AM 62.8 °F 58.1 °F 85% 30.14 in 10.0 mi North 4.6 mph - N/A   Scattered Clouds
8:55 AM 63.9 °F 58.6 °F 83% 30.15 in 10.0 mi Calm Calm - N/A   Scattered Clouds
9:15 AM 66.9 °F 54.3 °F 64% 30.15 in 10.0 mi NNW 5.8 mph - N/A   Scattered Clouds
9:35 AM 68.2 °F 51.3 °F 55% 30.16 in 10.0 mi NW 4.6 mph - N/A   Clear
9:55 AM 69.4 °F 50.4 °F 51% 30.16 in 10.0 mi Calm Calm - N/A   Clear
10:15 AM 70.3 °F 51.3 °F 51% 30.15 in 10.0 mi WNW 8.1 mph - N/A   Clear
10:35 AM 71.2 °F 50.4 °F 48% 30.15 in 10.0 mi WNW 5.8 mph - N/A   Clear
10:55 AM 72.3 °F 51.3 °F 47% 30.15 in 10.0 mi West 4.6 mph - N/A   Clear
11:15 AM 74.1 °F 51.3 °F 45% 30.15 in 10.0 mi NW 4.6 mph - N/A   Clear
11:35 AM 74.8 °F 49.5 °F 41% 30.15 in 10.0 mi WNW 4.6 mph - N/A   Clear
11:55 AM 76.8 °F 48.0 °F 36% 30.14 in 10.0 mi NW 4.6 mph - N/A   Clear
12:15 PM 78.1 °F 47.3 °F 34% 30.14 in 10.0 mi NNW 3.5 mph - N/A   Clear
12:35 PM 79.0 °F 46.4 °F 32% 30.14 in 10.0 mi North 4.6 mph - N/A   Clear
12:55 PM 80.1 °F 44.8 °F 29% 30.14 in 10.0 mi North 5.8 mph - N/A   Clear
1:15 PM 81.3 °F 44.4 °F 27% 30.13 in 10.0 mi NNW 5.8 mph - N/A   Clear
1:35 PM 81.7 °F 44.4 °F 27% 30.13 in 10.0 mi North 4.6 mph - N/A   Clear
1:55 PM 82.8 °F 40.6 °F 22% 30.13 in 10.0 mi NE 3.5 mph - N/A   Clear
2:15 PM 84.0 °F 42.1 °F 23% 30.13 in 10.0 mi ENE 6.9 mph - N/A   Clear
2:35 PM 84.2 °F 41.0 °F 22% 30.12 in 10.0 mi East 6.9 mph - N/A   Clear
2:55 PM 85.1 °F 42.1 °F 22% 30.12 in 10.0 mi North 5.8 mph - N/A   Clear
3:15 PM 85.5 °F 41.5 °F 21% 30.12 in 10.0 mi NE 4.6 mph - N/A   Clear
3:35 PM 85.8 °F 39.9 °F 20% 30.11 in 10.0 mi Calm Calm - N/A   Clear
3:55 PM 86.5 °F 40.6 °F 20% 30.11 in 10.0 mi ENE 4.6 mph - N/A   Clear
4:15 PM 86.0 °F 39.7 °F 19% 30.10 in 10.0 mi ESE 6.9 mph - N/A   Clear
4:35 PM 86.0 °F 42.6 °F 22% 30.10 in 10.0 mi East 10.4 mph - N/A   Clear
4:55 PM 86.4 °F 44.1 °F 23% 30.10 in 10.0 mi East 15.0 mph 19.6 mph N/A   Clear
5:15 PM 86.0 °F 43.2 °F 22% 30.10 in 10.0 mi East 9.2 mph 18.4 mph N/A   Clear
5:35 PM 84.7 °F 43.5 °F 23% 30.10 in 10.0 mi ESE 15.0 mph 19.6 mph N/A   Clear
5:55 PM 85.8 °F 42.6 °F 22% 30.09 in 10.0 mi ESE 16.1 mph - N/A   Clear
6:15 PM 85.3 °F 43.0 °F 23% 30.09 in 10.0 mi ESE 13.8 mph 19.6 mph N/A   Clear
6:35 PM 84.7 °F 42.8 °F 23% 30.09 in 10.0 mi East 16.1 mph 19.6 mph N/A   Clear
6:55 PM 81.7 °F 50.2 °F 33% 30.10 in 10.0 mi East 23.0 mph 29.9 mph N/A   Clear
7:15 PM 80.1 °F 50.9 °F 36% 30.10 in 10.0 mi East 21.9 mph 31.1 mph N/A   Clear
7:35 PM 78.8 °F 50.9 °F 38% 30.10 in 10.0 mi East 19.6 mph 29.9 mph N/A   Clear
7:55 PM 75.9 °F 53.2 °F 45% 30.11 in 10.0 mi East 24.2 mph 29.9 mph N/A   Clear
8:15 PM 72.7 °F 53.1 °F 50% 30.12 in 10.0 mi East 18.4 mph 29.9 mph N/A   Clear
8:35 PM 71.1 °F 52.7 °F 52% 30.13 in 10.0 mi East 18.4 mph 23.0 mph N/A   Clear
8:55 PM 69.8 °F 52.2 °F 53% 30.13 in 10.0 mi East 18.4 mph 21.9 mph N/A   Clear
9:15 PM 68.2 °F 51.8 °F 56% 30.14 in 10.0 mi East 15.0 mph 20.7 mph N/A   Clear
9:35 PM 66.6 °F 51.8 °F 59% 30.14 in 10.0 mi East 11.5 mph - N/A   Clear
9:55 PM 65.1 °F 51.3 °F 61% 30.15 in 10.0 mi East 18.4 mph - N/A   Clear
10:15 PM 63.9 °F 51.1 °F 63% 30.15 in 10.0 mi East 15.0 mph - N/A   Clear
10:35 PM 62.4 °F 51.1 °F 66% 30.16 in 10.0 mi East 13.8 mph 19.6 mph N/A   Clear
10:55 PM 61.0 °F 50.9 °F 69% 30.15 in 10.0 mi East 11.5 mph 17.3 mph N/A   Clear
11:15 PM 59.9 °F 50.7 °F 72% 30.16 in 10.0 mi East 11.5 mph - N/A   Clear
11:35 PM 59.0 °F 50.4 °F 73% 30.16 in 10.0 mi ESE 13.8 mph - N/A   Clear
11:55 PM 58.3 °F 50.2 °F 74% 30.16 in 10.0 mi ESE 12.7 mph 16.1 mph N/A   Clear